Track EUTE 12 WEST A (AB 1) now! EUTE 12 WEST A (AB 1) is classified as:
1 27508U 02040A 21109.99781833 -.00000165 00000-0 00000+0 0 9991 2 27508 2.4782 87.7255 0009499 321.6281 289.2216 0.98294332 68177